Regional Weather Roundup
Issued by NWS

Home | Current Version | Previous Version | Graphics & Text | Print | Product List | Glossary On
Versions: 1 2 3 4 5 6 7 8 9 10 11 12 13 14 15 16 17 18 19 20 21 22 23 24 25 26 27 28 29 30 31 32 33 34 35 36 37 38 39 40 41 42 43 44 45 46 47 48 49 50
000
ASUS43 KOAX 190610
RWRNE

WEATHER ROUNDUP FOR NEBRASKA
NATIONAL WEATHER SERVICE OMAHA NE
100 AM CDT FRI SEP 19 2014

NOTES: SATELLITE DATA IS BEING USED TO AUGMENT CLOUD COVER ABOVE
       12000 FEET.
       "FAIR" INDICATES FEW OR NO CLOUDS BELOW 12,000 FEET WITH NO
       SIGNIFICANT WEATHER AND/OR OBSTRUCTIONS TO VISIBILITY.

  * THESE STATIONS DO NOT REPORT WEATHER SUCH AS RAIN...SNOW OR FOG.

NEZ001>004-019>022-054>056-190700-
NEBRASKA PANHANDLE

CITY           SKY/WX    TMP DP  RH WIND       PRES   REMARKS
SCOTTSBLUFF    CLEAR     63  61  93 E10       29.86S
6HR MIN TEMP:  63; 6HR MAX TEMP:  87;

ALLIANCE       CLEAR     61  60  97 S12       29.85F
6HR MIN TEMP:  61; 6HR MAX TEMP:  80;

CHADRON        PTCLDY    73  60  63 S15G26    29.75S
6HR MIN TEMP:  73; 6HR MAX TEMP:  88;

KIMBALL        CLEAR     61  59  92 S8        29.92S
SIDNEY         CLEAR     62  57  83 S9        29.92S
6HR MIN TEMP:  62; 6HR MAX TEMP:  84;

$$

NEZ057>060-069>072-079>082-190700-
SOUTHWEST NEBRASKA

CITY           SKY/WX    TMP DP  RH WIND       PRES   REMARKS
NORTH PLATTE   FOG       58  58 100 E7        29.88F VSB 1/4
6HR MIN TEMP:  56; 6HR MAX TEMP:  67;

IMPERIAL       CLEAR     61  59  93 SE10      29.89F
6HR MIN TEMP:  61; 6HR MAX TEMP:  73;

LEXINGTON      CLEAR     62  61  97 SE8       29.89S
MCCOOK         FOG       57  57 100 E6        29.89S VSB 1/4
6HR MIN TEMP:  57; 6HR MAX TEMP:  70;

OGALLALA       CLOUDY    61  60  98 CALM      29.89S
$$

NEZ005>010-023>029-035>040-094-190700-
NORTH CENTRAL NEBRASKA

CITY           SKY/WX    TMP DP  RH WIND       PRES   REMARKS
VALENTINE      CLOUDY    65  62  90 S17G31    29.81F
6HR MIN TEMP:  63; 6HR MAX TEMP:  78;

AINSWORTH      CLOUDY    66  63  90 S17G26    29.84F
BROKEN BOW     PTCLDY    63  62  97 SE6       29.88S FOG
6HR MIN TEMP:  63; 6HR MAX TEMP:  70;

O`NEILL        CLOUDY    67  65  95 S13G20    29.86F
ORD            CLOUDY    65  63  93 SE12      29.87S
6HR MIN TEMP:  64; 6HR MAX TEMP:  72;

THEDFORD       CLEAR     63  62  95 S6        29.87F
$$

NEZ041-046>049-061>064-073>077-083>087-190700-
SOUTH CENTRAL NEBRASKA

CITY           SKY/WX    TMP DP  RH WIND       PRES   REMARKS
GRAND ISLAND   CLOUDY    65  63  93 S18G30    29.93R FOG
6HR MIN TEMP:  65; 6HR MAX TEMP:  69;

AURORA         CLOUDY    63  63 100 S16       29.94S FOG
HASTINGS       CLOUDY    65  61  87 S17G29    29.93S FOG
6HR MIN TEMP:  65; 6HR MAX TEMP:  74;

HEBRON         CLOUDY    65  61  89 SE10      29.96F FOG
HOLDREGE       CLEAR     65  62  89 SE17      29.91R
KEARNEY *      CLOUDY    66  63  88 SE22G28   29.92R
YORK           CLOUDY    63  63 100 S16G23    29.96R FOG
$$

NEZ011>018-030>034-042>045-190700-
NORTHEAST NEBRASKA

CITY           SKY/WX    TMP DP  RH WIND       PRES   REMARKS
NORFOLK        MOCLDY    61  58  90 SE18G26   29.92S
6HR MIN TEMP:  61; 6HR MAX TEMP:  73;

ALBION         CLOUDY    63  60  91 S18G24    29.92R FOG
BLAIR          PTCLDY    62  58  87 SE12G20   29.98R
COLUMBUS *     CLOUDY    63  57  82 S14G21    29.96R
FREMONT        CLOUDY    64  60  87 SE16G24   29.97S
TEKAMAH        CLEAR     61  57  87 SE9       29.97S
6HR MIN TEMP:  60; 6HR MAX TEMP:  72;

WAYNE          MOCLDY    61  58  90 S15       29.93S
$$

NEZ050>053-065>068-078-088>093-190700-
SOUTHEAST NEBRASKA

CITY           SKY/WX    TMP DP  RH WIND       PRES   REMARKS
LINCOLN        MOCLDY    64  60  87 S14       29.98S
6HR MIN TEMP:  63; 6HR MAX TEMP:  75;

OMAHA EPPLEY   PTCLDY    62  57  83 SE13      29.99S
6HR MIN TEMP:  62; 6HR MAX TEMP:  71;

BEATRICE       CLOUDY    63  60  91 S9        29.98F
FALLS CITY     CLEAR     58  57  97 SE5       30.00S FOG
6HR MIN TEMP:  57; 6HR MAX TEMP:  65;

NEBRASKA CITY  CLEAR     60  59  97 S7        30.00S FOG
PLATTSMOUTH    CLEAR     60  57  91 S9        29.99S FOG
$$

NEZ044-045-051>053-067-190700-
OMAHA AREA

CITY           SKY/WX    TMP DP  RH WIND       PRES   REMARKS
OMAHA EPPLEY   PTCLDY    62  57  83 SE13      29.99S
6HR MIN TEMP:  62; 6HR MAX TEMP:  71;

BLAIR          PTCLDY    62  58  87 SE12G20   29.98R
FREMONT        CLOUDY    64  60  87 SE16G24   29.97S
MILLARD        PTCLDY    62  59  89 SE8       29.99R
OFFUTT AFB     CLEAR     59  59 100 SE8       29.99S
PLATTSMOUTH    CLEAR     60  57  91 S9        29.99S FOG
WAHOO          CLOUDY    63  59  86 S13G20    29.97S
$$



USA.gov is the U.S. government's official web portal to all federal, state and local government web resources and services.